Regional Weather Roundup
Issued by NWS Newport/Morehead, NC

Current Version | Previous Version | Graphics & Text | Print | Product List | Glossary Off
Versions: 1 2 3 4 5 6 7 8 9 10 11 12 13 14 15 16 17 18 19 20 21 22 23 24 25 26 27 28 29 30 31 32 33 34 35 36 37 38 39 40 41 42 43 44 45 46 47 48 49 50

000
ASUS42 KMHX 230325
RWRMHX
WEATHER ROUNDUP FOR EASTERN NORTH CAROLINA
NATIONAL WEATHER SERVICE NEWPORT/MOREHEAD CITY NC
1000 PM EST SUN JAN 22 2017

NOTE: "FAIR" INDICATES FEW OR NO CLOUDS BELOW 12,000 FEET
WITH NO SIGNIFICANT WEATHER AND/OR OBSTRUCTIONS TO VISIBILITY

NCZ015>017-031-032-045>047-102-103-230400-
NORTH COAST

CITY           SKY/WX    TMP DP  RH WIND       PRES   REMARKS
EDENTON        CLOUDY    54  52  95 CALM      29.55R FOG
ELIZABETH CITY CLOUDY    50  49  96 N8        29.53S
KITTY HAWK     NOT AVBL
MANTEO         CLOUDY    48  48 100 NE8       29.55R

$$

NCZ045>047-081-094-103-104-230400-
CENTRAL COAST

CITY           SKY/WX    TMP DP  RH WIND       PRES   REMARKS
FRISCO         FOG       51  50  96 NE9       29.52F VSB 1/2

$$

NCZ095-097-098-100-101-230400-
SOUTHERN COAST

CITY           SKY/WX    TMP DP  RH WIND       PRES   REMARKS
BEAUFORT       MOCLDY    60  58  92 E9        29.45F
CEDAR ISLAND   NOT AVBL
JACKSONVILLE   LGT RAIN  59  59 100 NW8       29.50R
PINEY ISLAND   PTCLDY   N/A N/A N/A E8        29.50S
WILMINGTON     RAIN      59  59 100 E9        29.47S FOG


$$

NCZ011>013-027>030-043-044-078>080-089-090>093-098-230400-
COASTAL PLAIN

CITY           SKY/WX    TMP DP  RH WIND       PRES   REMARKS
AHOSKIE          N/A     50  50  99 NE3       29.54F FOG
CLINTON        RAIN      59  59 100 E8        29.46F
ELIZABETHTOWN  LGT RAIN  59  59 100 E9        29.42F
GOLDSBORO      LGT RAIN  56  56 100 E7        29.49S
GREENVILLE     LGT RAIN  55  55 100 E5        29.56R VSB 1
HAVELOCK       CLOUDY    59  57  93 E8        29.49S
KENANSVILLE    LGT RAIN  59  59 100 E7        29.48F FOG
KINSTON        CLOUDY    57  57 100 NE3       29.52R
NEW BERN       LGT RAIN  58  56  93 CALM      29.53R
RICHLANDS      LGT RAIN  58  57  97 CALM      29.52R FOG
ROCKY MOUNT    LGT RAIN  53  53 100 NE5       29.54R FOG
WASHINGTON     FOG       54  54  99 N7          N/A  VSB 3/4
WHITEVILLE     LGT RAIN  60  59  97 E6        29.43R

$$

AMZ130-135-150-152-154-156-158-170-250-252-270-ANZ085-086-088-633-658-670-230400-
MARINE OBSERVATIONS

STATION/POSITION TIME  TEMP    WIND        PRES    WAVE   SWELL
                       AIR SEA DIR/SP/G            HT/PER HT/PER
                 (UTC) (F)     (DEG/KT/KT) (MB)    (FT/S) (FT/S)
CHESAPEAKE LIGHT NOT AVBL
64 E VA BEACH    0250   49 56  310/ 10/ 12  999.3    4/14   3/14
DUCK             0300   47 46   10/ 11/ 13  999.5
2 E DUCK         0300      46                N/A     3/14   2/14
OREGON INLET     0300   47 50   10/  6/  9 1000.3
13E OREGON INLT  NOT AVBL
HATTERAS CG      0300   51 55   50/  7/ 12  999.7
DIAMOND BUOY     0250   60 71   30/ 12/ 14  999.8    4/13   3/13
CAPE LOOKOUT     0300   63      70/ 17/ 18  997.1
BEAUFORT LAB     0300   60 52   70/  7/ 12  996.5
30 SE NEW RVR IN 0308   67 69  160/ 17/ 23  996.6
30 SE NEW RVR IN 0313      69                N/A     6/ 8   2/13
27 SE WRIGHTSVLE 0308   69 66  140/ 19/ 25  995.2
5 SE WRIGHTSVLE  0308   56      10/ 12/ 19  997.5
225 S CAPE HAT   0250   70 71  360/  4/  8 1003.3    8/ 8   8/ 8
41 SE CHARLESTON 0250   70 66  120/ 29/ 39  990.6    6/ 8   3/ 8

$$




USA.gov is the U.S. government's official web portal to all federal, state and local government web resources and services.